Location: Woodstock
(35.2731°N, 89.9823°W)
Time: 17:43:41
(UTC+00:00)

JUGNU - Visible Passes

Search period start: 18 January 2026 00:00
Search period end: 28 January 2026 00:00
Orbit: 833 x 860 km, 20.0° (Epoch: 17 January)

Date Brightness Start Highest point End Pass type
(mag) Time Alt. Az. Time Alt. Az. Time Alt. Az.
18 Jan ? 10:50:12 10° S 10:52:16 12° SSE 10:54:20 10° SE visible
18 Jan ? 12:36:41 10° SW 12:40:26 17° S 12:44:11 10° SE visible
19 Jan ? 10:34:33 12° S 10:35:53 13° SSE 10:38:20 10° SE visible
19 Jan ? 12:20:15 10° SW 12:24:03 17° S 12:27:52 10° SE visible
20 Jan ? 10:19:30 13° SSE 10:19:30 13° SSE 10:22:14 10° SE visible
20 Jan ? 12:03:50 10° SW 12:07:41 18° S 12:11:31 10° SE visible
21 Jan ? 10:04:24 13° SSE 10:04:24 13° SSE 10:06:06 10° SE visible
21 Jan ? 11:47:26 10° SW 11:51:18 18° S 11:55:09 10° SE visible
22 Jan ? 09:49:16 12° SE 09:49:16 12° SE 09:49:55 10° SE visible
22 Jan ? 11:31:04 10° SW 11:34:56 18° S 11:38:47 10° SE visible
23 Jan ? 11:15:52 13° SSW 11:18:33 18° S 11:22:23 10° SE visible
24 Jan ? 11:00:40 16° SSW 11:02:10 17° S 11:05:58 10° SE visible
25 Jan ? 10:45:27 17° S 10:45:47 17° S 10:49:32 10° SE visible
25 Jan ? 12:32:03 10° SSW 12:33:57 11° SSW 12:35:51 10° S visible
26 Jan ? 10:30:13 16° S 10:30:13 16° S 10:33:05 10° SSE visible
26 Jan ? 12:16:15 10° SSW 12:17:34 11° SSW 12:18:52 10° S visible
27 Jan ? 10:15:00 14° SSE 10:15:00 14° SSE 10:16:37 10° SSE visible
